owner,sensor,date,latitude,longitude,sea_water_turbidity,qcFlag 
NERRS,ioos:station:NOAA.NERRS:gndbhwq:1,2015-01-02T15:00:00Z,30.4178,-88.4054,23.0,1111122 
NERRS,ioos:station:NOAA.NERRS:gndbhwq:1,2015-01-02T16:00:00Z,30.4178,-88.4054,23.0,1111122 
NERRS,ioos:station:NOAA.NERRS:gndbhwq:1,2015-01-02T17:00:00Z,30.4178,-88.4054,23.0,1111122 
NERRS,ioos:station:NOAA.NERRS:gndbhwq:1,2015-01-02T18:00:00Z,30.4178,-88.4054,24.0,1111122 
NERRS,ioos:station:NOAA.NERRS:gndbhwq:1,2015-01-02T19:00:00Z,30.4178,-88.4054,25.0,1111122 
NERRS,ioos:station:NOAA.NERRS:gndbhwq:1,2015-01-02T21:00:00Z,30.4178,-88.4054,25.0,1111122 
NERRS,ioos:station:NOAA.NERRS:gndbhwq:1,2015-01-02T22:00:00Z,30.4178,-88.4054,24.0,1111122 
NERRS,ioos:station:NOAA.NERRS:gndbhwq:1,2015-01-02T23:00:00Z,30.4178,-88.4054,24.0,1111122 
NERRS,ioos:station:NOAA.NERRS:gndbhwq:1,2015-01-03T00:00:00Z,30.4178,-88.4054,25.0,1111122 
NERRS,ioos:station:NOAA.NERRS:gndbhwq:1,2015-01-03T01:00:00Z,30.4178,-88.4054,24.0,1111122 
NERRS,ioos:station:NOAA.NERRS:gndbhwq:1,2015-01-03T03:00:00Z,30.4178,-88.4054,28.0,1111122 
NERRS,ioos:station:NOAA.NERRS:gndbhwq:1,2015-01-03T04:00:00Z,30.4178,-88.4054,27.0,1111122 
NERRS,ioos:station:NOAA.NERRS:gndbhwq:1,2015-01-03T05:00:00Z,30.4178,-88.4054,28.0,1111122 
NERRS,ioos:station:NOAA.NERRS:gndbhwq:1,2015-01-03T06:00:00Z,30.4178,-88.4054,29.0,1111122 
NERRS,ioos:station:NOAA.NERRS:gndbhwq:1,2015-01-03T07:00:00Z,30.4178,-88.4054,28.0,1111122 
NERRS,ioos:station:NOAA.NERRS:gndbhwq:1,2015-01-03T08:00:00Z,30.4178,-88.4054,29.0,1111122 
NERRS,ioos:station:NOAA.NERRS:gndbhwq:1,2015-01-03T09:00:00Z,30.4178,-88.4054,29.0,1111122 
NERRS,ioos:station:NOAA.NERRS:gndbhwq:1,2015-01-03T10:00:00Z,30.4178,-88.4054,29.0,1111122 
NERRS,ioos:station:NOAA.NERRS:gndbhwq:1,2015-01-03T11:00:00Z,30.4178,-88.4054,28.0,1111122 
NERRS,ioos:station:NOAA.NERRS:gndbhwq:1,2015-01-03T12:00:00Z,30.4178,-88.4054,27.0,1111122 
NERRS,ioos:station:NOAA.NERRS:gndbhwq:1,2015-01-03T13:00:00Z,30.4178,-88.4054,27.0,1111122 
NERRS,ioos:station:NOAA.NERRS:gndbhwq:1,2015-01-03T14:00:00Z,30.4178,-88.4054,27.0,1111122 
NERRS,ioos:station:NOAA.NERRS:gndbhwq:1,2015-01-03T15:00:00Z,30.4178,-88.4054,25.0,1111122 
NERRS,ioos:station:NOAA.NERRS:gndbhwq:1,2015-01-03T16:00:00Z,30.4178,-88.4054,27.0,1111122 
NERRS,ioos:station:NOAA.NERRS:gndbhwq:1,2015-01-03T17:00:00Z,30.4178,-88.4054,27.0,1111122 
NERRS,ioos:station:NOAA.NERRS:gndbhwq:1,2015-01-03T19:00:00Z,30.4178,-88.4054,25.0,1111122 
NERRS,ioos:station:NOAA.NERRS:gndbhwq:1,2015-01-03T20:00:00Z,30.4178,-88.4054,25.0,1111122 
NERRS,ioos:station:NOAA.NERRS:gndbhwq:1,2015-01-03T21:00:00Z,30.4178,-88.4054,26.0,1111122 
NERRS,ioos:station:NOAA.NERRS:gndbhwq:1,2015-01-03T22:00:00Z,30.4178,-88.4054,24.0,1111122 
NERRS,ioos:station:NOAA.NERRS:gndbhwq:1,2015-01-03T23:00:00Z,30.4178,-88.4054,24.0,1111122 
NERRS,ioos:station:NOAA.NERRS:gndbhwq:1,2015-01-04T00:00:00Z,30.4178,-88.4054,26.0,1111122 
NERRS,ioos:station:NOAA.NERRS:gndbhwq:1,2015-01-04T01:00:00Z,30.4178,-88.4054,27.0,1111122 
NERRS,ioos:station:NOAA.NERRS:gndbhwq:1,2015-01-04T02:00:00Z,30.4178,-88.4054,26.0,1111122 
NERRS,ioos:station:NOAA.NERRS:gndbhwq:1,2015-01-04T03:00:00Z,30.4178,-88.4054,26.0,1111122 
NERRS,ioos:station:NOAA.NERRS:gndbhwq:1,2015-01-04T04:00:00Z,30.4178,-88.4054,24.0,1111122 
NERRS,ioos:station:NOAA.NERRS:gndbhwq:1,2015-01-04T05:00:00Z,30.4178,-88.4054,28.0,1111122 
NERRS,ioos:station:NOAA.NERRS:gndbhwq:1,2015-01-04T07:00:00Z,30.4178,-88.4054,26.0,1111122 
NERRS,ioos:station:NOAA.NERRS:gndbhwq:1,2015-01-04T08:00:00Z,30.4178,-88.4054,25.0,1111122 
NERRS,ioos:station:NOAA.NERRS:gndbhwq:1,2015-01-04T09:00:00Z,30.4178,-88.4054,27.0,1111122 
NERRS,ioos:station:NOAA.NERRS:gndbhwq:1,2015-01-04T10:00:00Z,30.4178,-88.4054,28.0,1111122 
NERRS,ioos:station:NOAA.NERRS:gndbhwq:1,2015-01-04T11:00:00Z,30.4178,-88.4054,26.0,1111122 
NERRS,ioos:station:NOAA.NERRS:gndbhwq:1,2015-01-04T12:00:00Z,30.4178,-88.4054,27.0,1111122 
NERRS,ioos:station:NOAA.NERRS:gndbhwq:1,2015-01-04T13:00:00Z,30.4178,-88.4054,29.0,1111122 
NERRS,ioos:station:NOAA.NERRS:gndbhwq:1,2015-01-04T14:00:00Z,30.4178,-88.4054,26.0,1111122 
NERRS,ioos:station:NOAA.NERRS:gndbhwq:1,2015-01-04T15:00:00Z,30.4178,-88.4054,24.0,1111122 
NERRS,ioos:station:NOAA.NERRS:gndbhwq:1,2015-01-04T16:00:00Z,30.4178,-88.4054,24.0,1111122 
NERRS,ioos:station:NOAA.NERRS:gndbhwq:1,2015-01-04T17:00:00Z,30.4178,-88.4054,28.0,1111122 
NERRS,ioos:station:NOAA.NERRS:gndbhwq:1,2015-01-04T18:00:00Z,30.4178,-88.4054,24.0,1111122 
NERRS,ioos:station:NOAA.NERRS:gndbhwq:1,2015-01-04T19:00:00Z,30.4178,-88.4054,26.0,1111122 
NERRS,ioos:station:NOAA.NERRS:gndbhwq:1,2015-01-04T20:00:00Z,30.4178,-88.4054,26.0,1111122 
NERRS,ioos:station:NOAA.NERRS:gndbhwq:1,2015-01-04T21:00:00Z,30.4178,-88.4054,26.0,1111122 
NERRS,ioos:station:NOAA.NERRS:gndbhwq:1,2015-01-04T22:00:00Z,30.4178,-88.4054,25.0,1111122 
NERRS,ioos:station:NOAA.NERRS:gndbhwq:1,2015-01-04T23:00:00Z,30.4178,-88.4054,27.0,1111122 
NERRS,ioos:station:NOAA.NERRS:gndbhwq:1,2015-01-05T00:00:00Z,30.4178,-88.4054,26.0,1111122 
NERRS,ioos:station:NOAA.NERRS:gndbhwq:1,2015-01-05T01:00:00Z,30.4178,-88.4054,31.0,1111122 
NERRS,ioos:station:NOAA.NERRS:gndbhwq:1,2015-01-05T02:00:00Z,30.4178,-88.4054,30.0,1111122 
NERRS,ioos:station:NOAA.NERRS:gndbhwq:1,2015-01-05T03:00:00Z,30.4178,-88.4054,31.0,1111122 
NERRS,ioos:station:NOAA.NERRS:gndbhwq:1,2015-01-05T04:00:00Z,30.4178,-88.4054,31.0,1111122 
NERRS,ioos:station:NOAA.NERRS:gndbhwq:1,2015-01-05T05:00:00Z,30.4178,-88.4054,31.0,1111122 
NERRS,ioos:station:NOAA.NERRS:gndbhwq:1,2015-01-05T07:00:00Z,30.4178,-88.4054,31.0,1111122 
NERRS,ioos:station:NOAA.NERRS:gndbhwq:1,2015-01-05T08:00:00Z,30.4178,-88.4054,28.0,1111122 
NERRS,ioos:station:NOAA.NERRS:gndbhwq:1,2015-01-05T09:00:00Z,30.4178,-88.4054,29.0,1111122 
NERRS,ioos:station:NOAA.NERRS:gndbhwq:1,2015-01-05T10:00:00Z,30.4178,-88.4054,34.0,1111122 
NERRS,ioos:station:NOAA.NERRS:gndbhwq:1,2015-01-05T11:00:00Z,30.4178,-88.4054,32.0,1111122 
NERRS,ioos:station:NOAA.NERRS:gndbhwq:1,2015-01-05T12:00:00Z,30.4178,-88.4054,32.0,1111122 
NERRS,ioos:station:NOAA.NERRS:gndbhwq:1,2015-01-05T13:00:00Z,30.4178,-88.4054,34.0,1111122 
NERRS,ioos:station:NOAA.NERRS:gndbhwq:1,2015-01-05T14:00:00Z,30.4178,-88.4054,32.0,1111122 
NERRS,ioos:station:NOAA.NERRS:gndbhwq:1,2015-01-05T15:00:00Z,30.4178,-88.4054,31.0,1111122 
NERRS,ioos:station:NOAA.NERRS:gndbhwq:1,2015-01-05T16:00:00Z,30.4178,-88.4054,30.0,1111122 
NERRS,ioos:station:NOAA.NERRS:gndbhwq:1,2015-01-05T17:00:00Z,30.4178,-88.4054,32.0,1111122 
NERRS,ioos:station:NOAA.NERRS:gndbhwq:1,2015-01-05T18:00:00Z,30.4178,-88.4054,33.0,1111122 
NERRS,ioos:station:NOAA.NERRS:gndbhwq:1,2015-01-05T19:00:00Z,30.4178,-88.4054,31.0,1111122 
NERRS,ioos:station:NOAA.NERRS:gndbhwq:1,2015-01-05T20:00:00Z,30.4178,-88.4054,34.0,1111122 
NERRS,ioos:station:NOAA.NERRS:gndbhwq:1,2015-01-05T21:00:00Z,30.4178,-88.4054,34.0,1111122 
NERRS,ioos:station:NOAA.NERRS:gndbhwq:1,2015-01-05T22:00:00Z,30.4178,-88.4054,34.0,1111122 
NERRS,ioos:station:NOAA.NERRS:gndbhwq:1,2015-01-05T23:00:00Z,30.4178,-88.4054,36.0,1111122 
NERRS,ioos:station:NOAA.NERRS:gndbhwq:1,2015-01-06T00:00:00Z,30.4178,-88.4054,43.0,1111122 
NERRS,ioos:station:NOAA.NERRS:gndbhwq:1,2015-01-06T01:00:00Z,30.4178,-88.4054,39.0,1111122 
NERRS,ioos:station:NOAA.NERRS:gndbhwq:1,2015-01-06T02:00:00Z,30.4178,-88.4054,39.0,1111122 
NERRS,ioos:station:NOAA.NERRS:gndbhwq:1,2015-01-06T03:00:00Z,30.4178,-88.4054,39.0,1111122 
NERRS,ioos:station:NOAA.NERRS:gndbhwq:1,2015-01-06T04:00:00Z,30.4178,-88.4054,39.0,1111122 
NERRS,ioos:station:NOAA.NERRS:gndbhwq:1,2015-01-06T05:00:00Z,30.4178,-88.4054,37.0,1111122 
NERRS,ioos:station:NOAA.NERRS:gndbhwq:1,2015-01-06T06:00:00Z,30.4178,-88.4054,40.0,1111122 
NERRS,ioos:station:NOAA.NERRS:gndbhwq:1,2015-01-06T07:00:00Z,30.4178,-88.4054,42.0,1111122 
NERRS,ioos:station:NOAA.NERRS:gndbhwq:1,2015-01-06T08:00:00Z,30.4178,-88.4054,39.0,1111122 
NERRS,ioos:station:NOAA.NERRS:gndbhwq:1,2015-01-06T09:00:00Z,30.4178,-88.4054,37.0,1111122 
NERRS,ioos:station:NOAA.NERRS:gndbhwq:1,2015-01-06T10:00:00Z,30.4178,-88.4054,37.0,1111122 
NERRS,ioos:station:NOAA.NERRS:gndbhwq:1,2015-01-06T11:00:00Z,30.4178,-88.4054,39.0,1111122 
NERRS,ioos:station:NOAA.NERRS:gndbhwq:1,2015-01-06T12:00:00Z,30.4178,-88.4054,37.0,1111122 
NERRS,ioos:station:NOAA.NERRS:gndbhwq:1,2015-01-06T13:00:00Z,30.4178,-88.4054,40.0,1111122 
NERRS,ioos:station:NOAA.NERRS:gndbhwq:1,2015-01-06T14:00:00Z,30.4178,-88.4054,38.0,1111122 
NERRS,ioos:station:NOAA.NERRS:gndbhwq:1,2015-01-06T15:00:00Z,30.4178,-88.4054,34.0,1111122 
NERRS,ioos:station:NOAA.NERRS:gndbhwq:1,2015-01-06T16:00:00Z,30.4178,-88.4054,34.0,1111122 
NERRS,ioos:station:NOAA.NERRS:gndbhwq:1,2015-01-06T17:00:00Z,30.4178,-88.4054,37.0,1111122 
NERRS,ioos:station:NOAA.NERRS:gndbhwq:1,2015-01-06T18:00:00Z,30.4178,-88.4054,39.0,1111122 
NERRS,ioos:station:NOAA.NERRS:gndbhwq:1,2015-01-06T19:00:00Z,30.4178,-88.4054,39.0,1111122 
NERRS,ioos:station:NOAA.NERRS:gndbhwq:1,2015-01-06T20:00:00Z,30.4178,-88.4054,37.0,1111122 
NERRS,ioos:station:NOAA.NERRS:gndbhwq:1,2015-01-06T21:00:00Z,30.4178,-88.4054,38.0,1111122 
NERRS,ioos:station:NOAA.NERRS:gndbhwq:1,2015-01-06T22:00:00Z,30.4178,-88.4054,38.0,1111122 
NERRS,ioos:station:NOAA.NERRS:gndbhwq:1,2015-01-06T23:00:00Z,30.4178,-88.4054,36.0,1111122 
NERRS,ioos:station:NOAA.NERRS:gndbhwq:1,2015-01-07T00:00:00Z,30.4178,-88.4054,39.0,1111122 
NERRS,ioos:station:NOAA.NERRS:gndbhwq:1,2015-01-07T01:00:00Z,30.4178,-88.4054,38.0,1111122 
NERRS,ioos:station:NOAA.NERRS:gndbhwq:1,2015-01-07T03:00:00Z,30.4178,-88.4054,35.0,1111122 
NERRS,ioos:station:NOAA.NERRS:gndbhwq:1,2015-01-07T04:00:00Z,30.4178,-88.4054,36.0,1111122 
NERRS,ioos:station:NOAA.NERRS:gndbhwq:1,2015-01-07T05:00:00Z,30.4178,-88.4054,36.0,1111122 
NERRS,ioos:station:NOAA.NERRS:gndbhwq:1,2015-01-07T06:00:00Z,30.4178,-88.4054,37.0,1111122 
NERRS,ioos:station:NOAA.NERRS:gndbhwq:1,2015-01-07T07:00:00Z,30.4178,-88.4054,38.0,1111122 
NERRS,ioos:station:NOAA.NERRS:gndbhwq:1,2015-01-07T08:00:00Z,30.4178,-88.4054,37.0,1111122 
NERRS,ioos:station:NOAA.NERRS:gndbhwq:1,2015-01-07T09:00:00Z,30.4178,-88.4054,35.0,1111122 
NERRS,ioos:station:NOAA.NERRS:gndbhwq:1,2015-01-07T10:00:00Z,30.4178,-88.4054,37.0,1111122 
NERRS,ioos:station:NOAA.NERRS:gndbhwq:1,2015-01-07T11:00:00Z,30.4178,-88.4054,37.0,1111122 
NERRS,ioos:station:NOAA.NERRS:gndbhwq:1,2015-01-07T12:00:00Z,30.4178,-88.4054,36.0,1111122 
NERRS,ioos:station:NOAA.NERRS:gndbhwq:1,2015-01-07T13:00:00Z,30.4178,-88.4054,34.0,1111122 
NERRS,ioos:station:NOAA.NERRS:gndbhwq:1,2015-01-07T14:00:00Z,30.4178,-88.4054,32.0,1111122 
NERRS,ioos:station:NOAA.NERRS:gndbhwq:1,2015-01-07T15:00:00Z,30.4178,-88.4054,32.0,1111122 
NERRS,ioos:station:NOAA.NERRS:gndbhwq:1,2015-01-07T16:00:00Z,30.4178,-88.4054,30.0,1111122 
NERRS,ioos:station:NOAA.NERRS:gndbhwq:1,2015-01-07T17:00:00Z,30.4178,-88.4054,29.0,1111122 
NERRS,ioos:station:NOAA.NERRS:gndbhwq:1,2015-01-07T18:00:00Z,30.4178,-88.4054,32.0,1111122 
NERRS,ioos:station:NOAA.NERRS:gndbhwq:1,2015-01-07T19:00:00Z,30.4178,-88.4054,34.0,1111122 
NERRS,ioos:station:NOAA.NERRS:gndbhwq:1,2015-01-07T20:00:00Z,30.4178,-88.4054,30.0,1111122 
NERRS,ioos:station:NOAA.NERRS:gndbhwq:1,2015-01-07T21:00:00Z,30.4178,-88.4054,32.0,1111122 
NERRS,ioos:station:NOAA.NERRS:gndbhwq:1,2015-01-07T22:00:00Z,30.4178,-88.4054,34.0,1111122 
NERRS,ioos:station:NOAA.NERRS:gndbhwq:1,2015-01-07T23:00:00Z,30.4178,-88.4054,34.0,1111122 
NERRS,ioos:station:NOAA.NERRS:gndbhwq:1,2015-01-08T00:00:00Z,30.4178,-88.4054,34.0,1111122 
NERRS,ioos:station:NOAA.NERRS:gndbhwq:1,2015-01-08T01:00:00Z,30.4178,-88.4054,33.0,1111122 
NERRS,ioos:station:NOAA.NERRS:gndbhwq:1,2015-01-08T02:00:00Z,30.4178,-88.4054,33.0,1111122 
NERRS,ioos:station:NOAA.NERRS:gndbhwq:1,2015-01-08T03:00:00Z,30.4178,-88.4054,33.0,1111122 
NERRS,ioos:station:NOAA.NERRS:gndbhwq:1,2015-01-08T04:00:00Z,30.4178,-88.4054,37.0,1111122 
NERRS,ioos:station:NOAA.NERRS:gndbhwq:1,2015-01-08T05:00:00Z,30.4178,-88.4054,32.0,1111122 
NERRS,ioos:station:NOAA.NERRS:gndbhwq:1,2015-01-08T07:00:00Z,30.4178,-88.4054,33.0,1111122 
NERRS,ioos:station:NOAA.NERRS:gndbhwq:1,2015-01-08T08:00:00Z,30.4178,-88.4054,31.0,1111122 
NERRS,ioos:station:NOAA.NERRS:gndbhwq:1,2015-01-08T09:00:00Z,30.4178,-88.4054,32.0,1111122 
NERRS,ioos:station:NOAA.NERRS:gndbhwq:1,2015-01-08T10:00:00Z,30.4178,-88.4054,33.0,1111122 
NERRS,ioos:station:NOAA.NERRS:gndbhwq:1,2015-01-08T11:00:00Z,30.4178,-88.4054,33.0,1111122 
NERRS,ioos:station:NOAA.NERRS:gndbhwq:1,2015-01-08T12:00:00Z,30.4178,-88.4054,31.0,1111122 
NERRS,ioos:station:NOAA.NERRS:gndbhwq:1,2015-01-08T13:00:00Z,30.4178,-88.4054,32.0,1111122 
NERRS,ioos:station:NOAA.NERRS:gndbhwq:1,2015-01-08T14:00:00Z,30.4178,-88.4054,30.0,1111122 
NERRS,ioos:station:NOAA.NERRS:gndbhwq:1,2015-01-08T15:00:00Z,30.4178,-88.4054,31.0,1111122 
NERRS,ioos:station:NOAA.NERRS:gndbhwq:1,2015-01-08T16:00:00Z,30.4178,-88.4054,27.0,1111122 
NERRS,ioos:station:NOAA.NERRS:gndbhwq:1,2015-01-08T17:00:00Z,30.4178,-88.4054,28.0,1111122 
NERRS,ioos:station:NOAA.NERRS:gndbhwq:1,2015-01-08T18:00:00Z,30.4178,-88.4054,30.0,1111122 
NERRS,ioos:station:NOAA.NERRS:gndbhwq:1,2015-01-08T19:00:00Z,30.4178,-88.4054,30.0,1111122 
NERRS,ioos:station:NOAA.NERRS:gndbhwq:1,2015-01-08T20:00:00Z,30.4178,-88.4054,30.0,1111122 
NERRS,ioos:station:NOAA.NERRS:gndbhwq:1,2015-01-08T21:00:00Z,30.4178,-88.4054,26.0,1111122 
NERRS,ioos:station:NOAA.NERRS:gndbhwq:1,2015-01-08T22:00:00Z,30.4178,-88.4054,33.0,1111122 
NERRS,ioos:station:NOAA.NERRS:gndbhwq:1,2015-01-08T23:00:00Z,30.4178,-88.4054,32.0,1111122 
NERRS,ioos:station:NOAA.NERRS:gndbhwq:1,2015-01-09T00:00:00Z,30.4178,-88.4054,34.0,1111122 
NERRS,ioos:station:NOAA.NERRS:gndbhwq:1,2015-01-09T01:00:00Z,30.4178,-88.4054,31.0,1111122 
NERRS,ioos:station:NOAA.NERRS:gndbhwq:1,2015-01-09T02:00:00Z,30.4178,-88.4054,32.0,1111122 
NERRS,ioos:station:NOAA.NERRS:gndbhwq:1,2015-01-09T03:00:00Z,30.4178,-88.4054,32.0,1111122 
NERRS,ioos:station:NOAA.NERRS:gndbhwq:1,2015-01-09T04:00:00Z,30.4178,-88.4054,32.0,1111122 
NERRS,ioos:station:NOAA.NERRS:gndbhwq:1,2015-01-09T05:00:00Z,30.4178,-88.4054,32.0,1111122 
NERRS,ioos:station:NOAA.NERRS:gndbhwq:1,2015-01-09T07:00:00Z,30.4178,-88.4054,31.0,1111122 
NERRS,ioos:station:NOAA.NERRS:gndbhwq:1,2015-01-09T08:00:00Z,30.4178,-88.4054,29.0,1111122 
NERRS,ioos:station:NOAA.NERRS:gndbhwq:1,2015-01-09T09:00:00Z,30.4178,-88.4054,27.0,1111122 
NERRS,ioos:station:NOAA.NERRS:gndbhwq:1,2015-01-09T10:00:00Z,30.4178,-88.4054,30.0,1111122 
NERRS,ioos:station:NOAA.NERRS:gndbhwq:1,2015-01-09T11:00:00Z,30.4178,-88.4054,29.0,1111122 
NERRS,ioos:station:NOAA.NERRS:gndbhwq:1,2015-01-09T12:00:00Z,30.4178,-88.4054,30.0,1111122 
NERRS,ioos:station:NOAA.NERRS:gndbhwq:1,2015-01-09T13:00:00Z,30.4178,-88.4054,29.0,1111122 
NERRS,ioos:station:NOAA.NERRS:gndbhwq:1,2015-01-09T14:00:00Z,30.4178,-88.4054,25.0,1111122 
NERRS,ioos:station:NOAA.NERRS:gndbhwq:1,2015-01-09T15:00:00Z,30.4178,-88.4054,28.0,1111122 
NERRS,ioos:station:NOAA.NERRS:gndbhwq:1,2015-01-09T16:00:00Z,30.4178,-88.4054,25.0,1111122 
NERRS,ioos:station:NOAA.NERRS:gndbhwq:1,2015-01-09T17:00:00Z,30.4178,-88.4054,31.0,1111122 
NERRS,ioos:station:NOAA.NERRS:gndbhwq:1,2015-01-09T18:00:00Z,30.4178,-88.4054,26.0,1111122 
NERRS,ioos:station:NOAA.NERRS:gndbhwq:1,2015-01-09T19:00:00Z,30.4178,-88.4054,28.0,1111122 
NERRS,ioos:station:NOAA.NERRS:gndbhwq:1,2015-01-09T20:00:00Z,30.4178,-88.4054,27.0,1111122 
NERRS,ioos:station:NOAA.NERRS:gndbhwq:1,2015-01-09T21:00:00Z,30.4178,-88.4054,30.0,1111122 
NERRS,ioos:station:NOAA.NERRS:gndbhwq:1,2015-01-09T22:00:00Z,30.4178,-88.4054,27.0,1111122 
NERRS,ioos:station:NOAA.NERRS:gndbhwq:1,2015-01-09T23:00:00Z,30.4178,-88.4054,31.0,1111122 
NERRS,ioos:station:NOAA.NERRS:gndbhwq:1,2015-01-10T00:00:00Z,30.4178,-88.4054,29.0,1111122 
NERRS,ioos:station:NOAA.NERRS:gndbhwq:1,2015-01-10T01:00:00Z,30.4178,-88.4054,25.0,1111122 
NERRS,ioos:station:NOAA.NERRS:gndbhwq:1,2015-01-10T02:00:00Z,30.4178,-88.4054,25.0,1111122 
NERRS,ioos:station:NOAA.NERRS:gndbhwq:1,2015-01-10T03:00:00Z,30.4178,-88.4054,25.0,1111122 
NERRS,ioos:station:NOAA.NERRS:gndbhwq:1,2015-01-10T04:00:00Z,30.4178,-88.4054,27.0,1111122 
NERRS,ioos:station:NOAA.NERRS:gndbhwq:1,2015-01-10T05:00:00Z,30.4178,-88.4054,28.0,1111122 
NERRS,ioos:station:NOAA.NERRS:gndbhwq:1,2015-01-10T06:00:00Z,30.4178,-88.4054,26.0,1111122 
NERRS,ioos:station:NOAA.NERRS:gndbhwq:1,2015-01-10T07:00:00Z,30.4178,-88.4054,25.0,1111122 
NERRS,ioos:station:NOAA.NERRS:gndbhwq:1,2015-01-10T08:00:00Z,30.4178,-88.4054,26.0,1111122 
NERRS,ioos:station:NOAA.NERRS:gndbhwq:1,2015-01-10T09:00:00Z,30.4178,-88.4054,25.0,1111122 
NERRS,ioos:station:NOAA.NERRS:gndbhwq:1,2015-01-10T10:00:00Z,30.4178,-88.4054,29.0,1111122 
NERRS,ioos:station:NOAA.NERRS:gndbhwq:1,2015-01-10T11:00:00Z,30.4178,-88.4054,26.0,1111122 
NERRS,ioos:station:NOAA.NERRS:gndbhwq:1,2015-01-10T12:00:00Z,30.4178,-88.4054,30.0,1111122 
NERRS,ioos:station:NOAA.NERRS:gndbhwq:1,2015-01-10T13:00:00Z,30.4178,-88.4054,25.0,1111122 
NERRS,ioos:station:NOAA.NERRS:gndbhwq:1,2015-01-10T14:00:00Z,30.4178,-88.4054,25.0,1111122 
NERRS,ioos:station:NOAA.NERRS:gndbhwq:1,2015-01-10T15:00:00Z,30.4178,-88.4054,26.0,1111122 
NERRS,ioos:station:NOAA.NERRS:gndbhwq:1,2015-01-10T16:00:00Z,30.4178,-88.4054,27.0,1111122 
NERRS,ioos:station:NOAA.NERRS:gndbhwq:1,2015-01-10T17:00:00Z,30.4178,-88.4054,29.0,1111122 
NERRS,ioos:station:NOAA.NERRS:gndbhwq:1,2015-01-10T18:00:00Z,30.4178,-88.4054,26.0,1111122 
NERRS,ioos:station:NOAA.NERRS:gndbhwq:1,2015-01-10T19:00:00Z,30.4178,-88.4054,26.0,1111122 
NERRS,ioos:station:NOAA.NERRS:gndbhwq:1,2015-01-10T20:00:00Z,30.4178,-88.4054,25.0,1111122 
NERRS,ioos:station:NOAA.NERRS:gndbhwq:1,2015-01-10T21:00:00Z,30.4178,-88.4054,25.0,1111122 
NERRS,ioos:station:NOAA.NERRS:gndbhwq:1,2015-01-10T22:00:00Z,30.4178,-88.4054,25.0,1111122 
NERRS,ioos:station:NOAA.NERRS:gndbhwq:1,2015-01-10T23:00:00Z,30.4178,-88.4054,27.0,1111122 
NERRS,ioos:station:NOAA.NERRS:gndbhwq:1,2015-01-11T00:00:00Z,30.4178,-88.4054,29.0,1111122 
NERRS,ioos:station:NOAA.NERRS:gndbhwq:1,2015-01-11T01:00:00Z,30.4178,-88.4054,26.0,1111122 
NERRS,ioos:station:NOAA.NERRS:gndbhwq:1,2015-01-11T02:00:00Z,30.4178,-88.4054,27.0,1111122 
NERRS,ioos:station:NOAA.NERRS:gndbhwq:1,2015-01-11T03:00:00Z,30.4178,-88.4054,26.0,1111122 
NERRS,ioos:station:NOAA.NERRS:gndbhwq:1,2015-01-11T04:00:00Z,30.4178,-88.4054,30.0,1111122 
NERRS,ioos:station:NOAA.NERRS:gndbhwq:1,2015-01-11T05:00:00Z,30.4178,-88.4054,28.0,1111122 
NERRS,ioos:station:NOAA.NERRS:gndbhwq:1,2015-01-11T06:00:00Z,30.4178,-88.4054,27.0,1111122 
NERRS,ioos:station:NOAA.NERRS:gndbhwq:1,2015-01-11T07:00:00Z,30.4178,-88.4054,27.0,1111122 
NERRS,ioos:station:NOAA.NERRS:gndbhwq:1,2015-01-11T08:00:00Z,30.4178,-88.4054,27.0,1111122 
NERRS,ioos:station:NOAA.NERRS:gndbhwq:1,2015-01-11T09:00:00Z,30.4178,-88.4054,30.0,1111122 
NERRS,ioos:station:NOAA.NERRS:gndbhwq:1,2015-01-11T10:00:00Z,30.4178,-88.4054,29.0,1111122 
NERRS,ioos:station:NOAA.NERRS:gndbhwq:1,2015-01-11T11:00:00Z,30.4178,-88.4054,31.0,1111122 
NERRS,ioos:station:NOAA.NERRS:gndbhwq:1,2015-01-11T12:00:00Z,30.4178,-88.4054,29.0,1111122 
NERRS,ioos:station:NOAA.NERRS:gndbhwq:1,2015-01-11T13:00:00Z,30.4178,-88.4054,34.0,1111122 
NERRS,ioos:station:NOAA.NERRS:gndbhwq:1,2015-01-11T14:00:00Z,30.4178,-88.4054,28.0,1111122 
NERRS,ioos:station:NOAA.NERRS:gndbhwq:1,2015-01-11T15:00:00Z,30.4178,-88.4054,25.0,1111122 
NERRS,ioos:station:NOAA.NERRS:gndbhwq:1,2015-01-11T16:00:00Z,30.4178,-88.4054,26.0,1111122 
NERRS,ioos:station:NOAA.NERRS:gndbhwq:1,2015-01-11T17:00:00Z,30.4178,-88.4054,31.0,1111122 
NERRS,ioos:station:NOAA.NERRS:gndbhwq:1,2015-01-11T18:00:00Z,30.4178,-88.4054,32.0,1111122 
NERRS,ioos:station:NOAA.NERRS:gndbhwq:1,2015-01-11T19:00:00Z,30.4178,-88.4054,27.0,1111122 
NERRS,ioos:station:NOAA.NERRS:gndbhwq:1,2015-01-11T20:00:00Z,30.4178,-88.4054,25.0,1111122 
NERRS,ioos:station:NOAA.NERRS:gndbhwq:1,2015-01-11T21:00:00Z,30.4178,-88.4054,28.0,1111122 
NERRS,ioos:station:NOAA.NERRS:gndbhwq:1,2015-01-11T22:00:00Z,30.4178,-88.4054,27.0,1111122 
NERRS,ioos:station:NOAA.NERRS:gndbhwq:1,2015-01-11T23:00:00Z,30.4178,-88.4054,25.0,1111122 
NERRS,ioos:station:NOAA.NERRS:gndbhwq:1,2015-01-12T00:00:00Z,30.4178,-88.4054,24.0,1111122 
NERRS,ioos:station:NOAA.NERRS:gndbhwq:1,2015-01-12T01:00:00Z,30.4178,-88.4054,26.0,1111122 
NERRS,ioos:station:NOAA.NERRS:gndbhwq:1,2015-01-12T02:00:00Z,30.4178,-88.4054,25.0,1111122 
NERRS,ioos:station:NOAA.NERRS:gndbhwq:1,2015-01-12T03:00:00Z,30.4178,-88.4054,25.0,1111122 
NERRS,ioos:station:NOAA.NERRS:gndbhwq:1,2015-01-12T04:00:00Z,30.4178,-88.4054,25.0,1111122 
NERRS,ioos:station:NOAA.NERRS:gndbhwq:1,2015-01-12T05:00:00Z,30.4178,-88.4054,25.0,1111122 
NERRS,ioos:station:NOAA.NERRS:gndbhwq:1,2015-01-12T06:00:00Z,30.4178,-88.4054,27.0,1111122 
NERRS,ioos:station:NOAA.NERRS:gndbhwq:1,2015-01-12T07:00:00Z,30.4178,-88.4054,29.0,1111122 
NERRS,ioos:station:NOAA.NERRS:gndbhwq:1,2015-01-12T08:00:00Z,30.4178,-88.4054,25.0,1111122 
NERRS,ioos:station:NOAA.NERRS:gndbhwq:1,2015-01-12T09:00:00Z,30.4178,-88.4054,29.0,1111122 
NERRS,ioos:station:NOAA.NERRS:gndbhwq:1,2015-01-12T10:00:00Z,30.4178,-88.4054,26.0,1111122 
NERRS,ioos:station:NOAA.NERRS:gndbhwq:1,2015-01-12T11:00:00Z,30.4178,-88.4054,28.0,1111122 
NERRS,ioos:station:NOAA.NERRS:gndbhwq:1,2015-01-12T12:00:00Z,30.4178,-88.4054,28.0,1111122 
NERRS,ioos:station:NOAA.NERRS:gndbhwq:1,2015-01-12T13:00:00Z,30.4178,-88.4054,25.0,1111122 
NERRS,ioos:station:NOAA.NERRS:gndbhwq:1,2015-01-12T14:00:00Z,30.4178,-88.4054,28.0,1111122 
NERRS,ioos:station:NOAA.NERRS:gndbhwq:1,2015-01-12T15:00:00Z,30.4178,-88.4054,26.0,1111122 
NERRS,ioos:station:NOAA.NERRS:gndbhwq:1,2015-01-12T16:00:00Z,30.4178,-88.4054,25.0,1111122 
NERRS,ioos:station:NOAA.NERRS:gndbhwq:1,2015-01-12T17:00:00Z,30.4178,-88.4054,3.0,1111122 
NERRS,ioos:station:NOAA.NERRS:gndbhwq:1,2015-01-12T18:00:00Z,30.4178,-88.4054,3.0,1111122 
NERRS,ioos:station:NOAA.NERRS:gndbhwq:1,2015-01-12T19:00:00Z,30.4178,-88.4054,3.0,1111122 
NERRS,ioos:station:NOAA.NERRS:gndbhwq:1,2015-01-12T20:00:00Z,30.4178,-88.4054,3.0,1111122 
NERRS,ioos:station:NOAA.NERRS:gndbhwq:1,2015-01-12T21:00:00Z,30.4178,-88.4054,4.0,1111122 
NERRS,ioos:station:NOAA.NERRS:gndbhwq:1,2015-01-12T22:00:00Z,30.4178,-88.4054,4.0,1111122 
NERRS,ioos:station:NOAA.NERRS:gndbhwq:1,2015-01-12T23:00:00Z,30.4178,-88.4054,3.0,1111122 
NERRS,ioos:station:NOAA.NERRS:gndbhwq:1,2015-01-13T00:00:00Z,30.4178,-88.4054,5.0,1111122 
NERRS,ioos:station:NOAA.NERRS:gndbhwq:1,2015-01-13T01:00:00Z,30.4178,-88.4054,4.0,1111122 
NERRS,ioos:station:NOAA.NERRS:gndbhwq:1,2015-01-13T02:00:00Z,30.4178,-88.4054,4.0,1111122 
NERRS,ioos:station:NOAA.NERRS:gndbhwq:1,2015-01-13T03:00:00Z,30.4178,-88.4054,3.0,1111122 
NERRS,ioos:station:NOAA.NERRS:gndbhwq:1,2015-01-13T04:00:00Z,30.4178,-88.4054,3.0,1111122 
NERRS,ioos:station:NOAA.NERRS:gndbhwq:1,2015-01-13T05:00:00Z,30.4178,-88.4054,3.0,1111122 
NERRS,ioos:station:NOAA.NERRS:gndbhwq:1,2015-01-13T06:00:00Z,30.4178,-88.4054,3.0,1111122 
NERRS,ioos:station:NOAA.NERRS:gndbhwq:1,2015-01-13T07:00:00Z,30.4178,-88.4054,4.0,1111122 
NERRS,ioos:station:NOAA.NERRS:gndbhwq:1,2015-01-13T08:00:00Z,30.4178,-88.4054,5.0,1111122 
NERRS,ioos:station:NOAA.NERRS:gndbhwq:1,2015-01-13T09:00:00Z,30.4178,-88.4054,4.0,1111122 
NERRS,ioos:station:NOAA.NERRS:gndbhwq:1,2015-01-13T10:00:00Z,30.4178,-88.4054,4.0,1111122 
NERRS,ioos:station:NOAA.NERRS:gndbhwq:1,2015-01-13T11:00:00Z,30.4178,-88.4054,4.0,1111122 
NERRS,ioos:station:NOAA.NERRS:gndbhwq:1,2015-01-13T12:00:00Z,30.4178,-88.4054,4.0,1111122 
NERRS,ioos:station:NOAA.NERRS:gndbhwq:1,2015-01-13T13:00:00Z,30.4178,-88.4054,4.0,1111122 
NERRS,ioos:station:NOAA.NERRS:gndbhwq:1,2015-01-13T14:00:00Z,30.4178,-88.4054,6.0,1111122 
NERRS,ioos:station:NOAA.NERRS:gndbhwq:1,2015-01-13T15:00:00Z,30.4178,-88.4054,3.0,1111122 
NERRS,ioos:station:NOAA.NERRS:gndbhwq:1,2015-01-13T16:00:00Z,30.4178,-88.4054,6.0,1111122 
NERRS,ioos:station:NOAA.NERRS:gndbhwq:1,2015-01-13T17:00:00Z,30.4178,-88.4054,4.0,1111122 
NERRS,ioos:station:NOAA.NERRS:gndbhwq:1,2015-01-13T18:00:00Z,30.4178,-88.4054,5.0,1111122 